Weather in Maraga

Russia / Republic of Dagestan     41°57′46″N   48°07′04″E
temp.,
°C
wind,
m/s
gust,
m/s
humid.,
%
clouds,
%
prec.,
mm/h
press.,
hPa
HPBL,
m
11 april, sun
sun1100:00+6wnw11885 0.0 102013
03:00+6nne01895 0.0 102010
06:00+7sse11786 0.0 101914
09:00+14e455220 0.0 1017376
12:00+18e4541100 0.0 1016670
15:00+18e4545100 0.0 1014626
18:00+14se2363100 0.0 101591
21:00+13s116827 0.0 101410
12 april, mon
mon1200:00+12wnw227097 0.0 101413
03:00+11s0076100 0.0 101510
06:00+10w0180100 0.0 101613
09:00+13nne2165100 0.0 1016346
12:00+15nne42588 0.0 1017727
15:00+15n436010 0.0 1017771
18:00+12nnw34700 0.0 1018214
21:00+10wnw22770 0.0 102014
13 april, tue
tue1300:00+9w11800 0.0 102010
03:00+9s2284100 0.0 102010
06:00+10sse2278100 0.0 102026
09:00+15ese466099 0.0 1020848
12:00+17ese674918 0.0 10191270
15:00+17ese56430 0.0 10181228
18:00+13ene22560 0.0 101931
21:00+10ssw1161100 0.0 102010
14 april, wed
wed1400:00+11sw2248100 0.0 101812
03:00+9wsw1150100 0.0 101610
06:00+9w00540 0.0 101610
09:00+12nne3160100 0.0 1017469
12:00+13nne3264100 0.0 1016667
15:00+12n3369100 0.1 1016670
18:00+11nw2473100 0.1 1016268
21:00+10w227099 0.1 101719
15 april, thu
thu1500:00+9wsw22665 0.0 101713
03:00+10wsw336499 0.0 101628
06:00+10sw11625 0.0 101612
09:00+15e31480 0.0 1016681
12:00+18ne43430 0.0 10151214
15:00+18ne43470 0.0 10151034
18:00+14ene22610 0.0 101539
21:00+11ssw11705 0.0 101610